Baltimore, MD

8:25 PM EDT on August 21, 2017 (GMT -0400)
Baltimore-Washington International

Weather History for KBWI - August, 2013

Change the Weather History Date:

Wednesday, August 28, 2013

  Actual Average Record
Temperature  
Mean Temperature 78 °F 74 °F  
Max Temperature 84 °F 84 °F 101 °F (1948)
Min Temperature 71 °F 64 °F 48 °F (1986)
Degree Days  
Heating Degree Days 0 0  
Month to date heating degree days 0 0  
Since 1 June heating degree days 0 15  
Since 1 July heating degree days 0 0  
Cooling Degree Days 13 9  
Month to date cooling degree days 250 291  
Year to date cooling degree days 1103 985  
Since 1 June cooling degree days 972 901  
Growing Degree Days 28 (Base 50)    
Moisture  
Dew Point 69 °F    
Average Humidity 79    
Maximum Humidity 93    
Minimum Humidity 65    
Precipitation  
Precipitation 0.01 in 0.09 in 2.60 in (1989)
Month to date precipitation 1.13 2.99  
Year to date precipitation 25.57 27.55  
Snow  
Snow 0.00 in 0.00 in - ()
Month to date snowfall 0.0 0.0  
Since 1 July snowfall 0.0 0.0  
Snow Depth 0.00 in    
Sea Level Pressure  
Sea Level Pressure 29.86 in    
Wind  
Wind Speed 5 mph (West)    
Max Wind Speed 15 mph    
Max Gust Speed 18 mph    
Visibility 9 miles    
Events Rain    
T = Trace of Precipitation, MM = Missing Value Source: NWS Daily Summary

Daily Weather History Graph

Daily Weather History Graph

Search for Another Location

Airport or City:

Trip Planner

Search our weather history database for the weather conditions in past years. The results will help you decide how hot, cold, wet, or windy it might be!

Date:

Astronomy

Aug. 28, 2013 Rise Set
Actual Time 6:31 AM EDT 7:43 PM EDT
Civil Twilight 6:04 AM EDT 8:10 PM EDT
Nautical Twilight 5:31 AM EDT 8:43 PM EDT
Astronomical Twilight 4:56 AM EDT 9:17 PM EDT
Moon No Moon Rise 2:17 PM EDT (8/28)
Length of Visible Light 14h 06m
Length of Day
13h 11m
Waning Gibbous, 47% of the Moon is Illuminated
Aug 28
Waning Gibbous
Sep 5
New
Sep 12
First Quarter
Sep 19
Full
Sep 26
Last Quarter

Hourly Weather History & Observations

Time (EDT) Temp. Heat Index Dew Point Humidity Pressure Visibility Wind Dir Wind Speed Gust Speed Precip Events Conditions
12:54 AM 75.9 °F - 70.0 °F 82% 29.91 in 6.0 mi Calm Calm - N/A   Haze
1:54 AM 77.0 °F - 70.0 °F 79% 29.89 in 7.0 mi WSW 3.5 mph - N/A   Mostly Cloudy
2:54 AM 75.0 °F - 69.1 °F 82% 29.88 in 7.0 mi WSW 3.5 mph - N/A   Mostly Cloudy
3:54 AM 75.0 °F - 69.1 °F 82% 29.87 in 7.0 mi Calm Calm - N/A   Mostly Cloudy
4:54 AM 73.9 °F - 68.0 °F 82% 29.86 in 7.0 mi Calm Calm - N/A   Mostly Cloudy
5:54 AM 73.9 °F - 68.0 °F 82% 29.87 in 9.0 mi Calm Calm - N/A   Mostly Cloudy
6:54 AM 75.9 °F - 68.0 °F 76% 29.88 in 9.0 mi Calm Calm - N/A   Overcast
7:54 AM 77.0 °F - 68.0 °F 74% 29.89 in 10.0 mi Calm Calm - 0.00 in Rain Light Rain
8:54 AM 77.0 °F - 69.1 °F 76% 29.90 in 10.0 mi WNW 3.5 mph - 0.00 in   Overcast
9:54 AM 75.9 °F - 71.1 °F 85% 29.90 in 8.0 mi WSW 4.6 mph - 0.01 in   Overcast
10:54 AM 79.0 °F - 71.1 °F 77% 29.90 in 8.0 mi West 10.4 mph - 0.00 in   Overcast
11:54 AM 80.1 °F 82.9 °F 69.1 °F 69% 29.88 in 9.0 mi West 10.4 mph - N/A   Mostly Cloudy
12:54 PM 82.9 °F 86.5 °F 69.1 °F 63% 29.86 in 10.0 mi West 10.4 mph - N/A   Mostly Cloudy
1:54 PM 81.0 °F 83.3 °F 66.9 °F 62% 29.86 in 10.0 mi WSW 10.4 mph - 0.00 in Rain Light Rain
2:29 PM 80.6 °F 82.7 °F 66.2 °F 61% 29.86 in 10.0 mi West 12.7 mph - 0.00 in   Overcast
2:49 PM 78.8 °F - 66.2 °F 65% 29.85 in 10.0 mi WNW 11.5 mph - 0.00 in   Overcast
2:54 PM 79.0 °F - 66.9 °F 66% 29.85 in 10.0 mi West 10.4 mph - 0.00 in Rain Light Rain
3:54 PM 78.1 °F - 69.1 °F 74% 29.83 in 10.0 mi West 9.2 mph - 0.00 in   Mostly Cloudy
4:54 PM 78.1 °F - 69.1 °F 74% 29.83 in 10.0 mi West 5.8 mph - N/A   Overcast
5:54 PM 77.0 °F - 70.0 °F 79% 29.82 in 10.0 mi WSW 6.9 mph - N/A   Overcast
6:54 PM 77.0 °F - 70.0 °F 79% 29.83 in 10.0 mi West 5.8 mph - N/A   Overcast
7:54 PM 75.2 °F - 69.8 °F 83% 29.83 in 10.0 mi SW 3.5 mph - N/A   Overcast
8:54 PM 75.0 °F - 71.1 °F 87% 29.85 in 10.0 mi WSW 3.5 mph - 0.00 in   Mostly Cloudy
9:54 PM 73.9 °F - 70.0 °F 87% 29.86 in 10.0 mi Calm Calm - N/A   Overcast
10:54 PM 72.0 °F - 69.1 °F 91% 29.83 in 9.0 mi West 5.8 mph - N/A   Scattered Clouds
11:54 PM 73.0 °F - 69.1 °F 87% 29.84 in 10.0 mi ENE 5.8 mph - N/A   Mostly Cloudy